User: anonymous
Location: Goheenville
(40.9070°N, 79.3720°W)
Time: 10:15:29
(UTC-04:00)
Language:

NOAA 11 - Orbit

View from above orbital plane
View from above orbital plane
View from above satellite
View from above satellite

Ground track
Ground track

The orbit data is extracted from the following two-line orbital elements,

1 19531U 88089A   14273.29538537 -.00000007  00000-0  18218-4 0  9847
2 19531 098.6741 349.3147 0010907 003.3583 356.7662 14.15098101342606
Epoch (UTC): 30 September 2014 07:05:21
Eccentricity: 0.0010907
inclination: 98.6741°
perigee height: 834 km
apogee height: 850 km
right ascension of ascending node: 349.3147°
argument of perigee: 3.3583°
revolutions per day: 14.15098101
mean anomaly at epoch: 356.7662°
orbit number at epoch: 34260

The dashed part of the orbit path shows where the satellite is in the earth's shadow,  

DLR